[[{"header":{"parameterUnit":"m.s-1","parameterCategory":2,"la1":30.2991,"la2":30.254,"lo1":-89.0895,"lo2":-89.0444,"dy":0.0017,"dx":0.0017,"nx":28,"ny":28,"refTime":"2023-11-14T09:00:00:Z","depth":"0","parameterNumber":2,"parameterNumberName":"U-component_of_CURRENTS"},"data":[0,0,0,0,0,0,0,0,0,0,0,0,0,0,0,0,0,0,0,0,0,0,0,0,0,0,0,0,0,0,0,0,0,0,0,0,0,0,0,0,0,0,0,0,0,0,0,0,0,0,0,0,0,0,0,0,0,0,0.3197,0.3198,0,0.3221,0.3221,0.3221,0.3208,0.3208,0.3208,0.3207,0.3197,0.3197,0.3197,0,0,0,0,0,0,0,0,0,0,0,0,0,0.316,0.3161,0.3197,0.3198,0.3198,0.3221,0.3221,0.3221,0.3209,0.3208,0.3208,0.3207,0.3197,0.3197,0.3197,0,0,0,0,0,0,0,0,0,0,0,0,0,0.3177,0.3161,0.3197,0.3197,0.3198,0.322,0.3221,0.3221,0.3209,0.3208,0.3208,0.3207,0.3197,0.3197,0.3197,0.3209,0,0,0.3198,0.3198,0,0,0,0,0,0,0,0,0.3176,0.3177,0.3197,0.3197,0.3198,0.3214,0.3204,0.3216,0.3209,0.3201,0.3207,0.3207,0.3202,0.3202,0.3204,0.3208,0.3208,0.3198,0.3198,0.3198,0.3198,0,0,0,0,0,0,0,0.3174,0.3177,0.3204,0.3197,0.3198,0.3202,0.3203,0.3206,0.3202,0.3202,0.3202,0.3209,0.3201,0.3204,0.3203,0.3208,0.3198,0.3198,0.3198,0.3198,0.3264,0.3266,0,0,0,0,0,0,0.3177,0.3176,0.3203,0.3205,0.3188,0.3203,0.3205,0.3207,0.3202,0.3202,0.321,0.3209,0.3204,0.3203,0.3203,0.3242,0.3198,0.3198,0.3198,0.3262,0.3265,0.3266,0,0,0,0,0,0,0.3176,0.3179,0.3202,0.3193,0.3197,0.3205,0.3207,0.3208,0.3214,0.3209,0.3207,0.3216,0.3203,0.3203,0.3218,0.324,0.3198,0.3198,0.326,0.3263,0.3265,0.3303,0,0,0,0,0,0,0.3175,0.3178,0.318,0.3193,0.3197,0.3221,0.3208,0.3208,0.322,0.3219,0.3214,0.3212,0.3203,0.3218,0.3218,0.3239,0.3198,0.3258,0.3262,0.3265,0.33,0.3306,0.3312,0,0,0,0,0,0.3173,0.3179,0.318,0.3184,0.32,0.3222,0.3225,0.3227,0.3221,0.3229,0.3231,0.3213,0.3239,0.322,0.3219,0.3241,0.3257,0.3261,0.3264,0.3297,0.3305,0.3312,0,0,0,0,0,0,0.3161,0.3179,0.318,0.319,0.3208,0.3221,0.3231,0.3233,0.324,0.3241,0.3229,0.3228,0.3255,0.3246,0.3225,0.3273,0.3247,0.3251,0.3272,0.328,0.3286,0.3301,0.3198,0,0,0,0,0,0.3161,0.3171,0.319,0.3199,0.321,0.3222,0.3231,0.3237,0.3247,0.3249,0.3247,0.3254,0.3271,0.3273,0.3284,0.3303,0.3319,0.332,0.3327,0.3332,0.3346,0.3394,0.3405,0.3279,0.3279,0.3279,0,0,0.3158,0.3171,0.3176,0.3198,0.3211,0.3232,0.3226,0.3248,0.3266,0.3248,0.3268,0.3276,0.3284,0.331,0.3321,0.3303,0.3378,0.3337,0.3341,0.3353,0.3399,0.3411,0.3422,0.3281,0.3281,0.3281,0,0,0.316,0.3172,0.3181,0.32,0.3228,0.3244,0.3253,0.3273,0.3284,0.3306,0.3308,0.3333,0.334,0.3359,0.3368,0.3418,0.3415,0.342,0.3456,0.3501,0.3512,0.3522,0.3561,0.3574,0.3417,0.3417,0.3417,0,0.3155,0.3171,0.3188,0.3205,0.3227,0.3251,0.3274,0.3292,0.3313,0.3333,0.3317,0.3368,0.3368,0.3419,0.3437,0.3432,0.3456,0.342,0.3509,0.3519,0.3528,0.3566,0.358,0.3419,0.3419,0.3419,0.3419,0,0.3164,0.3181,0.3193,0.3224,0.325,0.3278,0.3311,0.3336,0.3352,0.3372,0.3423,0.3432,0.3464,0.347,0.3466,0.3537,0.3533,0.3515,0.3486,0.3543,0.358,0.3593,0.3423,0.3422,0.3421,0.3421,0,0,0.3135,0.319,0.319,0.3209,0.3267,0.3283,0.3334,0.3386,0.3427,0.3445,0.3497,0.3528,0.3541,0.3555,0.356,0.3596,0.3677,0.3585,0.3586,0.3618,0.3783,0.3765,0.3777,0.3673,0.3676,0.3678,0.3783,0,0.3138,0.3168,0.3204,0.3241,0.3264,0.3316,0.3361,0.341,0.3462,0.3517,0.3546,0.3599,0.3572,0.3599,0.3632,0.3677,0.3715,0.3651,0.3729,0.3731,0.3703,0.3793,0.3668,0.3751,0.3796,0.3799,0.38,0,0.3125,0.3153,0.3189,0.3255,0.3271,0.3302,0.3392,0.3434,0.3528,0.3577,0.3638,0.3668,0.374,0.3702,0.3798,0.376,0.3779,0.38,0.3804,0.3785,0.3739,0.3702,0.3774,0.371,0.3821,0.3819,0.3818,0,0.3078,0.3137,0.3168,0.3188,0.3268,0.33,0.3347,0.3444,0.3495,0.3623,0.3676,0.3765,0.3805,0.3858,0.3893,0.3861,0.3994,0.3948,0.3948,0.3947,0.3856,0.3842,0.3869,0.4017,0.4017,0.4017,0.4016,0,0.3059,0.3076,0.3145,0.3155,0.3197,0.3265,0.3333,0.3406,0.3522,0.3601,0.3691,0.3777,0.3847,0.3918,0.3944,0.4001,0.4034,0.3987,0.3986,0.3866,0.3853,0.3804,0.3762,0.4021,0.402,0.4019,0.4018,0,0.2992,0.304,0.307,0.3149,0.3171,0.3191,0.3297,0.3353,0.3478,0.3588,0.3632,0.3794,0.3922,0.3977,0.4084,0.4058,0.4022,0.4123,0.3979,0.396,0.3887,0.3851,0.3736,0.3612,0.4154,0.4155,0.4155,0,0.2959,0.297,0.3034,0.3048,0.3082,0.3134,0.3176,0.331,0.3385,0.3604,0.365,0.3819,0.3928,0.4079,0.4115,0.4176,0.4042,0.4066,0.3978,0.39,0.3859,0.3688,0.3578,0.3874,0.3872,0.387,0.3869,0,0.29,0.2923,0.2948,0.2975,0.301,0.3049,0.3127,0.3182,0.3359,0.3462,0.3629,0.374,0.393,0.3971,0.4063,0.408,0.3887,0.4034,0.3988,0.3688,0.3467,0.334,0.3789,0.3854,0.3855,0.3857,0.3857,0.3858,0.2848,0.2845,0.2877,0.2892,0.2924,0.2951,0.295,0.3065,0.3157,0.3289,0.3503,0.3614,0.3803,0.394,0.3926,0.3869,0.381,0.3766,0.3746,0.3592,0.3414,0.3841,0.388,0.3882,0.3883,0.3884,0.3885,0,0.277,0.2777,0.2793,0.2795,0.2778,0.2835,0.2896,0.2886,0.294,0.3129,0.3246,0.3463,0.3549,0.367,0.3744,0.3614,0.3395,0.3511,0.3242,0.3158,0.359,0.3522,0.3442,0.3442,0.3442,0.3442,0.3442,0.3442,0.273,0.2705,0.2708,0.264,0.264,0.2576,0.258,0.2599,0.2691,0.2808,0.2926,0.3102,0.3434,0.3622,0.3574,0.3463,0.3168,0.3018,0.2985,0.3324,0.3344,0.3364,0.3292,0.3165,0.3164,0.2406,0.2401,0.2397]},{"header":{"parameterUnit":"m.s-1","parameterCategory":2,"la1":30.2991,"la2":30.254,"lo1":-89.0895,"lo2":-89.0444,"dy":0.0017,"dx":0.0017,"nx":28,"ny":28,"refTime":"2023-11-14T09:00:00:Z","depth":"0","parameterNumber":3,"parameterNumberName":"V-component_of_CURRENTS"},"data":[0,0,0,0,0,0,0,0,0,0,0,0,0,0,0,0,0,0,0,0,0,0,0,0,0,0,0,0,0,0,0,0,0,0,0,0,0,0,0,0,0,0,0,0,0,0,0,0,0,0,0,0,0,0,0,0,0,0,-0.001,-0.0011,0,-0.0095,-0.0096,-0.0097,-0.0152,-0.0152,-0.0152,-0.0152,-0.0261,-0.0264,-0.0267,0,0,0,0,0,0,0,0,0,0,0,0,0,0.004,0.0039,-0.001,-0.0011,-0.0012,-0.0094,-0.0096,-0.0097,-0.0152,-0.0152,-0.0152,-0.0152,-0.026,-0.0264,-0.0267,0,0,0,0,0,0,0,0,0,0,0,0,0,-0.0009,0.0039,-0.001,-0.0048,-0.0052,-0.0094,-0.0096,-0.0097,-0.0152,-0.0152,-0.0152,-0.0152,-0.0259,-0.0263,-0.0267,-0.0288,0,0,-0.028,-0.0282,0,0,0,0,0,0,0,0,-0.0006,-0.0011,-0.0041,-0.0045,-0.005,-0.0111,-0.0118,-0.0162,-0.0152,-0.0116,-0.0152,-0.0153,-0.0212,-0.022,-0.0238,-0.0293,-0.0297,-0.028,-0.0283,-0.0284,-0.0286,0,0,0,0,0,0,0,-0.0002,-0.0008,-0.0046,-0.0042,-0.0047,-0.0082,-0.0089,-0.0127,-0.0163,-0.0119,-0.0123,-0.0129,-0.0215,-0.0233,-0.0241,-0.0299,-0.028,-0.0284,-0.0286,-0.0288,-0.0364,-0.0363,0,0,0,0,0,0,0.0016,-0.0004,-0.0043,-0.0048,-0.0026,-0.0082,-0.009,-0.0093,-0.0163,-0.0173,-0.0128,-0.0131,-0.0226,-0.0236,-0.0245,-0.0251,-0.0284,-0.0288,-0.0291,-0.0364,-0.0364,-0.0363,0,0,0,0,0,0,0.0017,0.0013,-0.004,-0.0027,-0.0036,-0.0082,-0.0085,-0.0094,-0.0107,-0.0169,-0.018,-0.0131,-0.0227,-0.0239,-0.0267,-0.0257,-0.029,-0.0294,-0.0365,-0.0364,-0.0363,-0.0278,0,0,0,0,0,0,0.0019,0.0014,0.0019,-0.0025,-0.0036,-0.0053,-0.0085,-0.0096,-0.011,-0.0114,-0.0175,-0.0186,-0.0228,-0.026,-0.0271,-0.0263,-0.0297,-0.0365,-0.0364,-0.0364,-0.0281,-0.0274,-0.0269,0,0,0,0,0,0.0021,0.0032,0.0019,0.0015,-0.0028,-0.0052,-0.0061,-0.0097,-0.0109,-0.011,-0.0149,-0.0184,-0.0263,-0.0263,-0.0276,-0.0269,-0.0366,-0.0365,-0.0364,-0.0284,-0.0276,-0.0269,0,0,0,0,0,0,0.0054,0.0027,0.0012,0.0013,-0.0012,-0.006,-0.0064,-0.0087,-0.0119,-0.012,-0.0179,-0.0192,-0.0214,-0.0252,-0.0251,-0.0288,-0.032,-0.0321,-0.0255,-0.0248,-0.0241,-0.0218,-0.0301,0,0,0,0,0,0.0065,0.0067,0.0032,0.0033,0.0026,-0.0016,-0.003,-0.0052,-0.0086,-0.0101,-0.0143,-0.0186,-0.0221,-0.0241,-0.028,-0.0299,-0.0334,-0.0303,-0.0296,-0.0291,-0.028,-0.0323,-0.032,-0.036,-0.036,-0.036,0,0,0.0077,0.0064,0.0063,0.0041,0.0018,0.0019,-0.0025,-0.0036,-0.0039,-0.0107,-0.0121,-0.0165,-0.0221,-0.0243,-0.0256,-0.0272,-0.0297,-0.0289,-0.0284,-0.0276,-0.0322,-0.0318,-0.0314,-0.0359,-0.0359,-0.0359,0,0,0.0108,0.0093,0.0107,0.0091,0.0069,0.0049,0.0053,0.0013,-0.0007,-0.0027,-0.0075,-0.0108,-0.0164,-0.0201,-0.0227,-0.0208,-0.0262,-0.0222,-0.0171,-0.0213,-0.021,-0.0208,-0.0243,-0.0245,-0.0218,-0.0218,-0.0218,0,0.0125,0.0137,0.0106,0.0114,0.0116,0.0071,0.0092,0.0062,0.0018,0.0009,-0.0018,-0.0093,-0.0144,-0.0168,-0.0163,-0.0193,-0.0223,-0.0194,-0.0204,-0.0202,-0.0201,-0.0238,-0.0241,-0.0214,-0.0214,-0.0215,-0.0215,0,0.0164,0.0173,0.0181,0.0183,0.0182,0.0189,0.0158,0.0144,0.0119,0.0091,0.0059,-0.0013,-0.0055,-0.008,-0.0117,-0.0133,-0.0157,-0.019,-0.0219,-0.0192,-0.0233,-0.0237,-0.0208,-0.0209,-0.0211,-0.0212,0,0,0.0208,0.021,0.0214,0.0233,0.0223,0.0231,0.0229,0.0222,0.0231,0.017,0.0171,0.0097,0.0059,0.0027,-0.0031,-0.0072,-0.0096,-0.0119,-0.0123,-0.0146,-0.0182,-0.0188,-0.0194,-0.0129,-0.0129,-0.013,-0.0212,0,0.0251,0.0292,0.0282,0.033,0.0355,0.0323,0.0326,0.0311,0.0291,0.0275,0.0193,0.0171,0.0099,0.0083,0.0031,-0.0061,-0.0105,-0.0071,-0.0212,-0.0216,-0.0218,-0.0198,-0.0164,-0.0233,-0.0216,-0.0217,-0.0218,0,0.03,0.0324,0.0381,0.0411,0.0419,0.0437,0.0459,0.0459,0.0419,0.0399,0.0359,0.0296,0.023,0.0161,0.002,0.0047,-0.0055,-0.0136,-0.0141,-0.0178,-0.023,-0.026,-0.0243,-0.0423,-0.0225,-0.0225,-0.0224,0,0.0365,0.0399,0.0457,0.0465,0.0483,0.05,0.0511,0.0498,0.0521,0.0486,0.0498,0.0398,0.0361,0.0219,0.0058,0.0039,-0.0098,-0.0152,-0.0256,-0.0258,-0.0272,-0.0274,-0.0438,-0.0253,-0.0253,-0.0253,-0.0253,0,0.0423,0.0465,0.0487,0.0516,0.0578,0.057,0.063,0.0619,0.0627,0.0681,0.0572,0.0588,0.0375,0.027,0.01,-0.0075,-0.0068,-0.0238,-0.0276,-0.0241,-0.024,-0.0433,-0.0552,-0.0256,-0.0255,-0.0255,-0.0254,0,0.048,0.0493,0.056,0.0595,0.0611,0.0658,0.0715,0.0762,0.0753,0.082,0.0818,0.0734,0.0604,0.0386,0.0164,-0.0001,-0.0292,-0.0253,-0.0191,-0.0221,-0.0493,-0.0608,-0.0825,-0.0915,-0.0387,-0.0387,-0.0388,0,0.0513,0.0554,0.0625,0.0674,0.0693,0.0755,0.0803,0.0822,0.0894,0.0925,0.0975,0.0868,0.0828,0.0496,0.0189,-0.0106,-0.0305,-0.0286,-0.0327,-0.0494,-0.0652,-0.0737,-0.0803,-0.0317,-0.0317,-0.0317,-0.0317,0,0.0579,0.0605,0.0659,0.0755,0.0825,0.0906,0.0986,0.106,0.1106,0.1165,0.1231,0.12,0.09,0.0632,0.0222,-0.0,-0.0416,-0.0294,-0.0489,-0.0624,-0.0707,-0.0813,-0.0279,-0.0316,-0.0316,-0.0316,-0.0316,-0.0316,0.063,0.0678,0.0753,0.0845,0.0933,0.105,0.1129,0.1235,0.1357,0.1471,0.1437,0.144,0.1043,0.0498,0.0171,-0.0395,-0.0431,-0.0568,-0.0697,-0.0769,-0.0849,-0.0303,-0.037,-0.037,-0.0371,-0.0371,-0.0371,0,0.0691,0.0745,0.0838,0.095,0.1057,0.1091,0.1249,0.1344,0.1501,0.1631,0.1689,0.1527,0.1017,0.048,-0.0268,-0.0696,-0.0868,-0.0947,-0.107,-0.1122,-0.0647,-0.0635,-0.0735,-0.0735,-0.0735,-0.0734,-0.0734,-0.0734,0.0725,0.0818,0.0861,0.1033,0.1118,0.1263,0.136,0.1511,0.164,0.1798,0.1845,0.1851,0.1467,0.0092,-0.0877,-0.1121,-0.1419,-0.1491,-0.1666,-0.1349,-0.1323,-0.1299,-0.1315,-0.1555,-0.1556,-0.2057,-0.2062,-0.2066]}],[{"header":{"parameterUnit":"m.s-1","parameterCategory":2,"la1":30.2991,"la2":30.254,"lo1":-89.0895,"lo2":-89.0444,"dy":0.0017,"dx":0.0017,"nx":28,"ny":28,"refTime":"2023-11-14T09:00:00:Z","depth":"2","parameterNumber":2,"parameterNumberName":"U-component_of_CURRENTS"},"data":[0,0,0,0,0,0,0,0,0,0,0,0,0,0,0,0,0,0,0,0,0,0,0,0,0,0,0,0,0,0,0,0,0,0,0,0,0,0,0,0,0,0,0,0,0,0,0,0,0,0,0,0,0,0,0,0,0,0,0.3045,0.3046,0,0.3069,0.3069,0.3069,0.3066,0.3066,0.3066,0.3066,0.3063,0.3063,0.3064,0,0,0,0,0,0,0,0,0,0,0,0,0,0.3006,0.3007,0.3045,0.3046,0.3046,0.3069,0.3069,0.3069,0.3066,0.3066,0.3066,0.3066,0.3063,0.3063,0.3064,0,0,0,0,0,0,0,0,0,0,0,0,0,0.3024,0.3007,0.3045,0.3049,0.305,0.3069,0.3069,0.3069,0.3066,0.3066,0.3066,0.3065,0.3063,0.3063,0.3064,0.307,0,0,0.3064,0.3064,0,0,0,0,0,0,0,0,0.3023,0.3025,0.3048,0.3049,0.305,0.3066,0.3055,0.3069,0.3066,0.3058,0.3066,0.3065,0.3064,0.3064,0.3066,0.307,0.307,0.3064,0.3064,0.3064,0.3064,0,0,0,0,0,0,0,0.3021,0.3024,0.3052,0.3049,0.305,0.3053,0.3055,0.3057,0.306,0.3058,0.3059,0.3065,0.3064,0.3066,0.3066,0.307,0.3064,0.3064,0.3064,0.3064,0.3134,0.3135,0,0,0,0,0,0,0.3023,0.3023,0.3052,0.3053,0.3038,0.3054,0.3056,0.3059,0.306,0.3061,0.3065,0.3065,0.3066,0.3066,0.3066,0.3112,0.3064,0.3064,0.3064,0.3132,0.3134,0.3136,0,0,0,0,0,0,0.3022,0.3025,0.3051,0.304,0.3044,0.3055,0.3059,0.306,0.3073,0.3066,0.3066,0.3079,0.3065,0.3065,0.3085,0.311,0.3064,0.3065,0.313,0.3132,0.3135,0.3179,0,0,0,0,0,0,0.3021,0.3025,0.303,0.304,0.3045,0.3071,0.306,0.3061,0.3078,0.3078,0.3078,0.3076,0.3065,0.3085,0.3085,0.3109,0.3065,0.3128,0.3131,0.3134,0.3175,0.3183,0.3189,0,0,0,0,0,0.3019,0.3028,0.303,0.3034,0.3051,0.3072,0.3075,0.308,0.3079,0.309,0.3094,0.3077,0.3106,0.3086,0.3086,0.3111,0.3126,0.313,0.3134,0.3172,0.3181,0.3189,0,0,0,0,0,0,0.3011,0.3029,0.3031,0.3044,0.3062,0.3073,0.3086,0.309,0.3102,0.3105,0.3093,0.3093,0.3123,0.3115,0.3093,0.3144,0.3116,0.312,0.3145,0.3154,0.316,0.3173,0.3065,0,0,0,0,0,0.3014,0.3026,0.3043,0.3055,0.3067,0.3079,0.309,0.3097,0.3108,0.3114,0.3114,0.3122,0.3139,0.3143,0.3154,0.3175,0.3187,0.3195,0.3202,0.3207,0.322,0.3263,0.3275,0.3149,0.3149,0.3149,0,0,0.3013,0.3026,0.3032,0.3055,0.307,0.309,0.3085,0.311,0.313,0.3112,0.3138,0.3147,0.3152,0.3181,0.3193,0.3175,0.3252,0.3212,0.3217,0.3227,0.3268,0.328,0.3291,0.3151,0.3151,0.315,0,0,0.3019,0.3034,0.3046,0.3064,0.3093,0.3108,0.3119,0.314,0.3153,0.3179,0.3181,0.3207,0.3218,0.3234,0.3242,0.3295,0.3291,0.33,0.3338,0.338,0.339,0.34,0.3437,0.345,0.3298,0.3298,0.3299,0,0.3018,0.3037,0.3054,0.3071,0.3093,0.3118,0.3141,0.3161,0.3185,0.3205,0.3194,0.3246,0.3246,0.3295,0.3316,0.3311,0.3333,0.3301,0.3388,0.3398,0.3407,0.3443,0.3456,0.3301,0.3301,0.33,0.33,0,0.303,0.305,0.3064,0.3096,0.3121,0.315,0.3182,0.321,0.323,0.3249,0.3302,0.3313,0.3345,0.3353,0.3348,0.3418,0.3414,0.3394,0.3363,0.3422,0.3456,0.3469,0.3305,0.3304,0.3303,0.3302,0,0,0.3009,0.3063,0.3064,0.3084,0.3141,0.3157,0.3209,0.3259,0.33,0.3323,0.3376,0.3409,0.3424,0.3437,0.3443,0.3478,0.3558,0.3467,0.3468,0.3498,0.3657,0.3626,0.3637,0.3553,0.3556,0.3558,0.3657,0,0.3015,0.3047,0.3081,0.312,0.3144,0.3193,0.3239,0.3286,0.3338,0.3394,0.3424,0.3478,0.3454,0.3485,0.3516,0.3557,0.3593,0.3533,0.3601,0.3604,0.3564,0.3652,0.3345,0.3406,0.367,0.3672,0.3673,0,0.3007,0.3035,0.3072,0.3136,0.3153,0.3185,0.3273,0.3315,0.3406,0.3455,0.3516,0.3547,0.3618,0.3584,0.3674,0.3639,0.3657,0.3675,0.3679,0.3644,0.3597,0.3391,0.3419,0.3694,0.3693,0.3691,0.369,0,0.2965,0.3024,0.3056,0.3076,0.3154,0.3187,0.3234,0.3327,0.3377,0.3504,0.3556,0.3642,0.3685,0.3733,0.3767,0.3736,0.3859,0.3814,0.3801,0.3799,0.3549,0.3521,0.3878,0.3878,0.3878,0.3878,0.3877,0,0.295,0.297,0.3038,0.305,0.3093,0.3158,0.3228,0.3299,0.3411,0.3486,0.3576,0.3657,0.3725,0.3792,0.3814,0.3859,0.3897,0.3837,0.3834,0.3558,0.3531,0.3781,0.3769,0.3881,0.3881,0.388,0.3879,0,0.289,0.2938,0.2969,0.3047,0.307,0.3094,0.3198,0.3252,0.3375,0.3481,0.3526,0.3676,0.3793,0.3846,0.3943,0.3912,0.3967,0.3963,0.3641,0.3599,0.3866,0.3855,0.3975,0.3975,0.3975,0.3975,0.3975,0,0.2861,0.2874,0.2939,0.2955,0.299,0.3045,0.3087,0.3216,0.3287,0.3494,0.3537,0.3696,0.3788,0.3918,0.3924,0.397,0.4007,0.3694,0.3582,0.3898,0.3882,0.3871,0.386,0.3263,0.3257,0.3253,0.3249,0,0.2808,0.2834,0.2859,0.2889,0.2926,0.2964,0.3041,0.309,0.3258,0.3354,0.3503,0.3598,0.3749,0.3672,0.374,0.3723,0.3667,0.3602,0.4015,0.3301,0.3238,0.322,0.3229,0.3206,0.3211,0.3214,0.3216,0.3218,0.2763,0.2761,0.2795,0.2813,0.2846,0.2868,0.2867,0.2969,0.3049,0.3151,0.3349,0.3377,0.3445,0.3411,0.3337,0.3277,0.3532,0.3346,0.3355,0.337,0.3285,0.3228,0.3177,0.3181,0.3184,0.3187,0.319,0,0.269,0.2699,0.2717,0.272,0.2703,0.2762,0.2814,0.2786,0.2822,0.2946,0.303,0.2855,0.2831,0.2888,0.2744,0.2778,0.269,0.2654,0.2487,0.2535,0.2577,0.2443,0.2116,0.2112,0.2108,0.2105,0,0,0.2652,0.2629,0.263,0.2566,0.2571,0.2504,0.2503,0.2486,0.2521,0.2496,0.2483,0.2692,0.2813,0.2415,0.2391,0.2212,0.2339,0.213,0.3004,0.2855,0.289,0.3007,0.2862,0,0,0,0,0]},{"header":{"parameterUnit":"m.s-1","parameterCategory":2,"la1":30.2991,"la2":30.254,"lo1":-89.0895,"lo2":-89.0444,"dy":0.0017,"dx":0.0017,"nx":28,"ny":28,"refTime":"2023-11-14T09:00:00:Z","depth":"2","parameterNumber":3,"parameterNumberName":"V-component_of_CURRENTS"},"data":[0,0,0,0,0,0,0,0,0,0,0,0,0,0,0,0,0,0,0,0,0,0,0,0,0,0,0,0,0,0,0,0,0,0,0,0,0,0,0,0,0,0,0,0,0,0,0,0,0,0,0,0,0,0,0,0,0,0,0.0093,0.0093,0,0.0014,0.0013,0.0012,-0.0041,-0.0041,-0.0042,-0.0042,-0.0144,-0.0146,-0.0149,0,0,0,0,0,0,0,0,0,0,0,0,0,0.0142,0.0141,0.0093,0.0093,0.0092,0.0014,0.0013,0.0012,-0.0041,-0.0041,-0.0042,-0.0042,-0.0143,-0.0146,-0.0149,0,0,0,0,0,0,0,0,0,0,0,0,0,0.0096,0.0141,0.0094,0.0057,0.0053,0.0015,0.0013,0.0011,-0.0041,-0.0041,-0.0042,-0.0042,-0.0142,-0.0146,-0.015,-0.0166,0,0,-0.0161,-0.0163,0,0,0,0,0,0,0,0,0.0099,0.0094,0.0063,0.006,0.0055,-0.0003,-0.0007,-0.0049,-0.0041,-0.0007,-0.0042,-0.0042,-0.0097,-0.0105,-0.0121,-0.0171,-0.0175,-0.0161,-0.0164,-0.0165,-0.0166,0,0,0,0,0,0,0,0.0102,0.0097,0.006,0.0063,0.0058,0.0025,0.0019,-0.0016,-0.0051,-0.001,-0.0014,-0.002,-0.01,-0.0117,-0.0124,-0.0177,-0.0161,-0.0165,-0.0167,-0.0168,-0.0239,-0.0238,0,0,0,0,0,0,0.0119,0.01,0.0063,0.0058,0.0078,0.0025,0.0018,0.0015,-0.005,-0.006,-0.0019,-0.0022,-0.0111,-0.0119,-0.0128,-0.0135,-0.0165,-0.0169,-0.0171,-0.0239,-0.0239,-0.0238,0,0,0,0,0,0,0.012,0.0116,0.0066,0.0078,0.007,0.0025,0.0022,0.0014,0.0,-0.0057,-0.0067,-0.0023,-0.0111,-0.0122,-0.0149,-0.014,-0.0171,-0.0174,-0.0239,-0.0239,-0.0238,-0.0159,0,0,0,0,0,0,0.0122,0.0117,0.0121,0.008,0.007,0.0053,0.0022,0.0012,-0.0003,-0.0007,-0.0064,-0.0074,-0.0112,-0.0143,-0.0153,-0.0145,-0.0177,-0.024,-0.0239,-0.0238,-0.0162,-0.0156,-0.015,0,0,0,0,0,0.0124,0.0134,0.0121,0.0117,0.0077,0.0054,0.0046,0.0011,-0.0002,-0.0003,-0.004,-0.0072,-0.0145,-0.0146,-0.0157,-0.0151,-0.024,-0.0239,-0.0239,-0.0165,-0.0157,-0.015,0,0,0,0,0,0,0.0154,0.0128,0.0114,0.0115,0.009,0.0045,0.0042,0.0019,-0.0012,-0.0014,-0.0068,-0.008,-0.0101,-0.0135,-0.0134,-0.0169,-0.0198,-0.0199,-0.0138,-0.0131,-0.0126,-0.0103,-0.018,0,0,0,0,0,0.0165,0.0166,0.0133,0.0134,0.0126,0.0086,0.0072,0.0051,0.0019,0.0005,-0.0035,-0.0075,-0.0108,-0.0125,-0.0162,-0.0179,-0.0214,-0.0182,-0.0176,-0.0171,-0.0161,-0.0203,-0.02,-0.0235,-0.0235,-0.0235,0,0,0.0176,0.0163,0.0162,0.0141,0.0119,0.012,0.0077,0.0065,0.0063,-0.0001,-0.0015,-0.0057,-0.0108,-0.0127,-0.014,-0.0154,-0.018,-0.017,-0.0165,-0.0158,-0.0202,-0.0199,-0.0196,-0.0235,-0.0235,-0.0235,0,0,0.0204,0.019,0.0202,0.0187,0.0165,0.0147,0.0149,0.011,0.009,0.0071,0.0027,-0.0005,-0.0057,-0.009,-0.0113,-0.0096,-0.0148,-0.0109,-0.0061,-0.0102,-0.0099,-0.0097,-0.0136,-0.0138,-0.0105,-0.0105,-0.0105,0,0.0219,0.0231,0.0201,0.0208,0.021,0.0167,0.0186,0.0158,0.0115,0.0107,0.0079,0.0009,-0.0038,-0.0058,-0.0054,-0.0082,-0.0112,-0.0082,-0.0093,-0.0092,-0.0091,-0.0132,-0.0135,-0.0101,-0.0101,-0.0102,-0.0102,0,0.0255,0.0263,0.0271,0.0273,0.0272,0.0278,0.0249,0.0234,0.0209,0.0183,0.0152,0.0084,0.0046,0.0022,-0.0012,-0.0027,-0.0052,-0.008,-0.0107,-0.0083,-0.0127,-0.0132,-0.0095,-0.0097,-0.0098,-0.0099,0,0,0.0295,0.0298,0.0301,0.032,0.031,0.0318,0.0316,0.031,0.0318,0.0258,0.0258,0.019,0.0152,0.0124,0.0069,0.003,0.0002,-0.0015,-0.0019,-0.0045,-0.0085,-0.0094,-0.0101,-0.0027,-0.0027,-0.0027,-0.0117,0,0.0335,0.0374,0.0365,0.0411,0.0435,0.0405,0.0409,0.0394,0.0374,0.0358,0.0281,0.026,0.0191,0.0176,0.0125,0.0038,-0.0007,0.003,-0.0111,-0.0115,-0.012,-0.0105,-0.0067,-0.0143,-0.0122,-0.0123,-0.0124,0,0.038,0.0403,0.0457,0.0488,0.0496,0.0513,0.0535,0.0535,0.0497,0.0477,0.0438,0.0378,0.0314,0.0248,0.011,0.0138,0.0037,-0.004,-0.0046,-0.0084,-0.0133,-0.0166,-0.0153,-0.0133,-0.0132,-0.0131,-0.0131,0,0.044,0.0474,0.0528,0.0536,0.0556,0.0572,0.0583,0.0572,0.0594,0.056,0.057,0.0474,0.0436,0.0299,0.0142,0.0125,-0.0013,-0.0061,-0.0168,-0.0171,-0.018,-0.0182,-0.0163,-0.0163,-0.0163,-0.0162,-0.0162,0,0.0494,0.0534,0.0557,0.0584,0.0645,0.0638,0.0696,0.0685,0.0694,0.0744,0.0641,0.0652,0.0448,0.0344,0.018,0.0005,0.0013,-0.0153,-0.0191,-0.0151,-0.015,-0.0175,-0.0175,-0.0166,-0.0165,-0.0164,-0.0164,0,0.0546,0.0559,0.0624,0.0659,0.0675,0.072,0.0777,0.0822,0.0814,0.0875,0.0872,0.0789,0.0657,0.0447,0.023,0.0071,-0.0108,-0.0177,-0.0113,-0.0141,-0.0254,-0.0249,-0.0313,-0.0314,-0.0315,-0.0316,-0.0316,0,0.0576,0.0616,0.0685,0.0732,0.075,0.0811,0.0858,0.0878,0.0948,0.0972,0.1018,0.0908,0.0859,0.0534,0.024,-0.0048,-0.0099,-0.0216,-0.0249,-0.0237,-0.0268,-0.0262,-0.0256,-0.0237,-0.0237,-0.0237,-0.0237,0,0.0637,0.0662,0.0715,0.0808,0.0875,0.0955,0.1032,0.1103,0.1147,0.1196,0.125,0.1211,0.0915,0.0642,0.0245,0.0044,-0.0169,-0.0224,-0.0226,-0.0197,-0.0171,-0.0199,-0.0195,-0.0236,-0.0236,-0.0236,-0.0236,-0.0236,0.0685,0.0731,0.0803,0.0892,0.0977,0.1091,0.1167,0.1265,0.1375,0.146,0.1424,0.1364,0.1061,0.0557,0.0217,-0.016,-0.015,-0.0291,-0.029,-0.0289,-0.0256,-0.0231,-0.0302,-0.0303,-0.0303,-0.0303,-0.0304,0,0.0742,0.0793,0.0883,0.0991,0.1094,0.1129,0.1281,0.1362,0.1499,0.1569,0.1601,0.1302,0.0998,0.0623,0.0085,-0.0229,-0.0264,-0.0348,-0.031,-0.0308,-0.0306,-0.0274,-0.0326,-0.0328,-0.0329,-0.033,0,0,0.0773,0.0861,0.0903,0.1068,0.115,0.1289,0.1381,0.1502,0.1581,0.1642,0.1609,0.1553,0.1114,0.0722,0.0299,-0.0015,-0.0099,-0.0089,-0.0033,0.0065,0.007,-0.0232,-0.0174,0,0,0,0,0]}],[{"header":{"parameterUnit":"m.s-1","parameterCategory":2,"la1":30.2991,"la2":30.254,"lo1":-89.0895,"lo2":-89.0444,"dy":0.0017,"dx":0.0017,"nx":28,"ny":28,"refTime":"2023-11-14T09:00:00:Z","depth":"4","parameterNumber":2,"parameterNumberName":"U-component_of_CURRENTS"},"data":[0,0,0,0,0,0,0,0,0,0,0,0,0,0,0,0,0,0,0,0,0,0,0,0,0,0,0,0,0,0,0,0,0,0,0,0,0,0,0,0,0,0,0,0,0,0,0,0,0,0,0,0,0,0,0,0,0,0,0.2011,0.2012,0,0.2079,0.208,0.208,0.214,0.2141,0.2142,0.2142,0.2216,0.2217,0.2218,0,0,0,0,0,0,0,0,0,0,0,0,0,0.1922,0.1924,0.2011,0.2012,0.2013,0.2079,0.208,0.208,0.214,0.2141,0.2142,0.2143,0.2216,0.2217,0.2218,0,0,0,0,0,0,0,0,0,0,0,0,0,0.1971,0.1924,0.2011,0.2052,0.2057,0.2079,0.208,0.208,0.214,0.2141,0.2142,0.2143,0.2215,0.2217,0.2218,0.2203,0,0,0.2224,0.2224,0,0,0,0,0,0,0,0,0.1968,0.1974,0.2045,0.2049,0.2055,0.2104,0.2075,0.2122,0.2139,0.2106,0.2142,0.2144,0.2179,0.2184,0.2191,0.2207,0.221,0.2224,0.2225,0.2226,0.2226,0,0,0,0,0,0,0,0.1965,0.1971,0.2036,0.2046,0.2052,0.2064,0.2072,0.2084,0.2133,0.2109,0.2114,0.2124,0.2182,0.2189,0.2193,0.2211,0.2224,0.2225,0.2226,0.2227,0.235,0.2352,0,0,0,0,0,0,0.1959,0.1968,0.2034,0.2038,0.2016,0.2064,0.2073,0.2085,0.2133,0.2142,0.2123,0.2127,0.2186,0.2191,0.2196,0.2295,0.2226,0.2227,0.2228,0.2347,0.235,0.2352,0,0,0,0,0,0,0.1957,0.1965,0.2031,0.2006,0.2016,0.2065,0.2077,0.2086,0.2139,0.2144,0.2153,0.2173,0.2187,0.2194,0.225,0.2294,0.2228,0.223,0.2345,0.2348,0.2351,0.242,0,0,0,0,0,0,0.1954,0.1963,0.199,0.2006,0.2017,0.2073,0.2077,0.2086,0.2141,0.2148,0.2189,0.2194,0.2188,0.2248,0.2252,0.2295,0.2231,0.2342,0.2346,0.235,0.2415,0.2425,0.2434,0,0,0,0,0,0.1951,0.1975,0.1991,0.2,0.2046,0.2074,0.2082,0.2119,0.2143,0.2171,0.2205,0.2195,0.2277,0.2251,0.2255,0.23,0.234,0.2345,0.235,0.2411,0.2423,0.2434,0,0,0,0,0,0,0.1952,0.1984,0.2002,0.2036,0.2068,0.2086,0.2123,0.2144,0.2192,0.2215,0.2219,0.2227,0.2294,0.2289,0.226,0.235,0.2309,0.2315,0.2354,0.2366,0.2375,0.238,0.2232,0,0,0,0,0,0.1962,0.1995,0.202,0.2055,0.2075,0.2108,0.2134,0.2159,0.2193,0.2218,0.2246,0.2279,0.2309,0.2333,0.2356,0.24,0.2402,0.2435,0.2445,0.2452,0.2461,0.2499,0.2512,0.2369,0.2369,0.2369,0,0,0.1973,0.1997,0.2017,0.2059,0.209,0.2122,0.2128,0.2181,0.2219,0.2216,0.2293,0.2317,0.233,0.2385,0.2414,0.2392,0.2498,0.2459,0.2465,0.247,0.2505,0.2519,0.2531,0.2372,0.2372,0.2371,0,0,0.1994,0.2035,0.2063,0.2092,0.2146,0.2165,0.2191,0.2236,0.2276,0.2336,0.2351,0.2404,0.2449,0.2467,0.2479,0.2556,0.2548,0.2574,0.2624,0.2661,0.2673,0.2683,0.2712,0.2725,0.2576,0.2577,0.2577,0,0.201,0.2046,0.2078,0.2109,0.2144,0.219,0.2227,0.2266,0.2328,0.2362,0.2376,0.2469,0.2485,0.2543,0.2577,0.2577,0.2597,0.2576,0.2673,0.2683,0.2692,0.2719,0.2732,0.258,0.258,0.258,0.2579,0,0.2032,0.2081,0.2105,0.216,0.2198,0.2247,0.2293,0.2352,0.2408,0.2438,0.253,0.2559,0.2613,0.2631,0.263,0.2711,0.2704,0.268,0.2639,0.271,0.2735,0.2747,0.2586,0.2585,0.2583,0.2583,0,0,0.2016,0.2105,0.2118,0.2155,0.2237,0.2262,0.2342,0.2411,0.2472,0.2539,0.2614,0.2677,0.2709,0.2726,0.2741,0.2777,0.2864,0.2769,0.2769,0.279,0.2955,0.2778,0.2774,0.2863,0.2865,0.2867,0.2948,0,0.2033,0.2096,0.2142,0.2216,0.2251,0.2324,0.2389,0.246,0.2534,0.2617,0.2668,0.2748,0.2739,0.2791,0.2826,0.286,0.2899,0.2845,0.2889,0.289,0.2718,0.2782,0.2875,0.2957,0.2959,0.2961,0.2963,0,0.2029,0.2078,0.2151,0.2246,0.2272,0.233,0.2448,0.251,0.2624,0.269,0.2776,0.2823,0.291,0.2889,0.2977,0.295,0.2968,0.2978,0.2981,0.2798,0.2735,0.2869,0.2984,0.2982,0.298,0.2979,0.2978,0,0.1977,0.2078,0.2142,0.2174,0.2288,0.2352,0.2423,0.2539,0.2601,0.2752,0.2815,0.2917,0.2981,0.3027,0.3062,0.3041,0.314,0.3102,0.2956,0.2945,0.3048,0.3036,0.3162,0.3161,0.3161,0.3161,0.3161,0,0.195,0.2003,0.2132,0.2162,0.2246,0.2336,0.2441,0.2531,0.2662,0.2735,0.2853,0.2921,0.3022,0.3083,0.3103,0.3063,0.3175,0.2976,0.2954,0.3077,0.3067,0.3057,0.3044,0.3164,0.3163,0.3163,0.3162,0,0.1872,0.1961,0.2036,0.2175,0.2223,0.2282,0.2434,0.2497,0.2642,0.2747,0.2803,0.2946,0.3032,0.3098,0.318,0.3086,0.3089,0.3048,0.3194,0.3177,0.2862,0.2852,0.2887,0.2881,0.2877,0.2873,0.2869,0,0.1833,0.1869,0.2022,0.207,0.2145,0.2251,0.2319,0.2475,0.2539,0.2739,0.2768,0.2911,0.2991,0.2943,0.3046,0.3064,0.3025,0.2995,0.2906,0.2859,0.2835,0.2833,0.2829,0.2862,0.2861,0.2859,0.2858,0,0.1756,0.1835,0.1899,0.1996,0.2082,0.2152,0.2266,0.229,0.2466,0.2618,0.2664,0.2706,0.2787,0.2834,0.2863,0.2874,0.2995,0.2945,0.2954,0.287,0.2829,0.281,0.2812,0.2842,0.2844,0.2846,0.2847,0,0.1708,0.1731,0.1829,0.1896,0.1993,0.202,0.2095,0.2161,0.2232,0.2441,0.2463,0.2618,0.2764,0.274,0.2781,0.2765,0.2717,0.2605,0.263,0.2649,0.2533,0.2444,0.2327,0,0,0,0,0,0.1641,0.1653,0.1714,0.1772,0.186,0.1913,0.204,0.2117,0.2284,0.225,0.2342,0.2415,0.246,0.2545,0.2481,0.2697,0.274,0.2611,0.2626,0.2751,0.277,0.2655,0,0,0,0,0,0,0.1595,0.1651,0.1668,0.1653,0.1668,0.174,0.1813,0.193,0.1912,0.2093,0.2126,0.2265,0.2346,0.2469,0.2433,0.246,0.2417,0.2716,0.2709,0.2741,0.2758,0.2773,0.2661,0,0,0,0,0]},{"header":{"parameterUnit":"m.s-1","parameterCategory":2,"la1":30.2991,"la2":30.254,"lo1":-89.0895,"lo2":-89.0444,"dy":0.0017,"dx":0.0017,"nx":28,"ny":28,"refTime":"2023-11-14T09:00:00:Z","depth":"4","parameterNumber":3,"parameterNumberName":"V-component_of_CURRENTS"},"data":[0,0,0,0,0,0,0,0,0,0,0,0,0,0,0,0,0,0,0,0,0,0,0,0,0,0,0,0,0,0,0,0,0,0,0,0,0,0,0,0,0,0,0,0,0,0,0,0,0,0,0,0,0,0,0,0,0,0,0.0153,0.0152,0,0.01,0.0099,0.0099,0.0064,0.0064,0.0064,0.0064,-0.0009,-0.001,-0.0012,0,0,0,0,0,0,0,0,0,0,0,0,0,0.0184,0.0183,0.0153,0.0152,0.0152,0.01,0.0099,0.0098,0.0064,0.0064,0.0064,0.0064,-0.0008,-0.001,-0.0012,0,0,0,0,0,0,0,0,0,0,0,0,0,0.0154,0.0183,0.0153,0.0129,0.0127,0.01,0.0099,0.0098,0.0064,0.0064,0.0064,0.0064,-0.0007,-0.001,-0.0013,-0.0026,0,0,-0.0021,-0.0022,0,0,0,0,0,0,0,0,0.0155,0.0152,0.0133,0.0131,0.0128,0.009,0.0084,0.0056,0.0064,0.0087,0.0064,0.0064,0.0023,0.0018,0.0007,-0.0029,-0.0033,-0.0021,-0.0023,-0.0024,-0.0025,0,0,0,0,0,0,0,0.0158,0.0154,0.0131,0.0133,0.013,0.0108,0.0103,0.0078,0.0055,0.0085,0.0083,0.0079,0.0022,0.001,0.0005,-0.0034,-0.0021,-0.0024,-0.0025,-0.0026,-0.0079,-0.0079,0,0,0,0,0,0,0.0169,0.0156,0.0133,0.0129,0.0143,0.0107,0.0103,0.0101,0.0056,0.005,0.0079,0.0077,0.0015,0.0008,0.0003,-0.0,-0.0024,-0.0027,-0.0028,-0.008,-0.0079,-0.0079,0,0,0,0,0,0,0.017,0.0167,0.0135,0.0142,0.0137,0.0108,0.0106,0.01,0.0093,0.0052,0.0045,0.0078,0.0014,0.0006,-0.0013,-0.0004,-0.0028,-0.003,-0.008,-0.0079,-0.0079,-0.0016,0,0,0,0,0,0,0.0171,0.0168,0.0173,0.0143,0.0137,0.0126,0.0106,0.0099,0.0091,0.0088,0.0048,0.0041,0.0014,-0.0008,-0.0015,-0.0008,-0.0032,-0.008,-0.008,-0.0079,-0.0018,-0.0014,-0.001,0,0,0,0,0,0.0172,0.018,0.0173,0.017,0.0144,0.0127,0.0121,0.0099,0.0091,0.0091,0.0066,0.0043,-0.0011,-0.001,-0.0019,-0.0012,-0.008,-0.008,-0.0079,-0.002,-0.0015,-0.001,0,0,0,0,0,0,0.0194,0.0177,0.0169,0.0171,0.0154,0.0121,0.0121,0.0105,0.0084,0.0084,0.0046,0.0037,0.0022,-0.0004,-0.0002,-0.0027,-0.0049,-0.0051,-0.0002,0.0003,0.0008,0.0025,-0.0035,0,0,0,0,0,0.0202,0.0206,0.0182,0.0185,0.0179,0.0152,0.0143,0.0129,0.0106,0.0097,0.0069,0.004,0.0017,0.0004,-0.0023,-0.0034,-0.0064,-0.0036,-0.0032,-0.0028,-0.0019,-0.0058,-0.0056,-0.0077,-0.0077,-0.0077,0,0,0.0212,0.0203,0.0205,0.019,0.0176,0.0178,0.0146,0.0139,0.0139,0.0092,0.0084,0.0054,0.0017,0.0003,-0.0006,-0.0016,-0.0038,-0.0027,-0.0023,-0.0017,-0.0057,-0.0055,-0.0053,-0.0077,-0.0077,-0.0077,0,0,0.0234,0.0226,0.0237,0.0226,0.0212,0.02,0.0202,0.0174,0.016,0.0148,0.0116,0.0093,0.0057,0.0032,0.0015,0.0028,-0.0014,0.0019,0.0057,0.002,0.0021,0.0023,-0.0013,-0.0016,0.0022,0.0022,0.0022,0,0.0246,0.0256,0.0236,0.0242,0.0246,0.0215,0.0231,0.021,0.018,0.0175,0.0155,0.0105,0.0071,0.0056,0.006,0.0038,0.0012,0.0042,0.0027,0.0027,0.0027,-0.001,-0.0014,0.0025,0.0025,0.0025,0.0024,0,0.0272,0.0282,0.0288,0.0293,0.0294,0.03,0.0279,0.0268,0.0252,0.0235,0.0214,0.0162,0.0135,0.0118,0.0093,0.008,0.0059,0.0037,0.0016,0.0033,-0.0007,-0.0012,0.003,0.0029,0.0028,0.0027,0,0,0.0299,0.0307,0.031,0.0327,0.0324,0.0331,0.0331,0.0328,0.0337,0.0293,0.0295,0.0245,0.0219,0.0198,0.0156,0.0122,0.0095,0.0088,0.0084,0.0059,0.0015,0.0007,0.0001,0.0072,0.0071,0.0071,-0.0013,0,0.0328,0.0359,0.0357,0.0396,0.0415,0.0396,0.0402,0.0394,0.0383,0.0372,0.0312,0.0301,0.0249,0.024,0.0197,0.0124,0.0085,0.012,-0.0003,-0.0006,-0.001,-0.0004,0.0069,-0.0017,-0.0018,-0.0019,-0.0019,0,0.0357,0.0378,0.0423,0.0454,0.0462,0.0481,0.0503,0.0506,0.048,0.0467,0.0439,0.0394,0.0342,0.0292,0.0174,0.02,0.0117,0.0052,0.0047,0.0016,-0.0023,-0.0039,-0.0029,-0.0028,-0.0028,-0.0027,-0.0026,0,0.0395,0.0428,0.0474,0.0483,0.0507,0.0526,0.0541,0.0539,0.0558,0.0535,0.0545,0.0468,0.0435,0.0323,0.0192,0.0184,0.0056,0.0024,-0.0066,-0.0068,-0.0064,-0.0064,-0.0064,-0.0064,-0.0064,-0.0063,-0.0063,0,0.0427,0.0463,0.0496,0.0519,0.0574,0.0577,0.0632,0.0627,0.064,0.0677,0.0604,0.0603,0.0443,0.035,0.0217,0.0068,0.0072,-0.0056,-0.0088,-0.0036,-0.0033,-0.0068,-0.0067,-0.0067,-0.0066,-0.0065,-0.0065,0,0.0454,0.0474,0.0531,0.0574,0.0594,0.0636,0.0698,0.0736,0.0738,0.0781,0.0779,0.0706,0.0585,0.0417,0.0232,0.0113,-0.0037,-0.0095,-0.0017,-0.0045,-0.0147,-0.0142,-0.0205,-0.0206,-0.0206,-0.0207,-0.0208,0,0.0468,0.0501,0.0577,0.062,0.0644,0.0706,0.075,0.078,0.0831,0.0846,0.0871,0.0774,0.0697,0.044,0.0251,-0.0006,-0.0051,-0.0135,-0.0153,-0.0135,-0.016,-0.0154,-0.0148,-0.0209,-0.0209,-0.0209,-0.021,0,0.0498,0.053,0.0576,0.0664,0.073,0.0803,0.0873,0.0915,0.0952,0.096,0.0946,0.081,0.0668,0.0452,0.0252,0.0065,-0.0083,-0.0144,-0.0145,-0.0162,-0.0141,-0.0164,-0.0157,-0.0212,-0.0212,-0.0212,-0.0211,0,0.0523,0.0559,0.0627,0.0703,0.0791,0.0874,0.0906,0.096,0.1002,0.1017,0.101,0.0853,0.0764,0.0489,0.031,0.0122,0.0059,-0.0016,-0.0025,-0.0024,0.0046,0.0101,0.0082,0,0,0,0,0,0.0541,0.0584,0.0659,0.0745,0.0835,0.0887,0.098,0.1008,0.1045,0.1046,0.103,0.0899,0.0632,0.0524,0.0334,0.0272,0.0015,0.0039,-0.008,-0.0227,-0.0224,-0.0174,0,0,0,0,0,0,0.0554,0.0623,0.0657,0.0767,0.0831,0.0933,0.0995,0.1022,0.1023,0.1031,0.09,0.0836,0.0583,0.074,0.0326,0.027,0.0163,-0.008,-0.0085,-0.0229,-0.0226,-0.0224,-0.0171,0,0,0,0,0]}]]